This is the latest recevied weather packets stored in our database for station/object W4SKW. If no packets are shown the sender has not sent any weather packets the latest 10 day(s).
| Time | Temp. | Humidity | Pressure | Rain* | Wind** | Luminosity | Snow |
|---|---|---|---|---|---|---|---|
| 1777699543 | 14.44° C | 67% | 1014.9 hPa | 0 mm | - | 0 W/m² | - |
| 1777699241 | 14.44° C | 67% | 1014.9 hPa | 0 mm | - | 0 W/m² | - |
| 1777698939 | 14.44° C | 68% | 1015.1 hPa | 0 mm | - | 0 W/m² | - |
| 1777698636 | 15° C | 67% | 1015 hPa | 0 mm | - | 0 W/m² | - |
| 1777698332 | 15° C | 68% | 1015 hPa | 0 mm | - | 0 W/m² | - |
| 1777698029 | 15° C | 67% | 1015.1 hPa | 0 mm | - | 0 W/m² | - |
| 1777697726 | 15° C | 67% | 1015.1 hPa | 0 mm | - | 0 W/m² | - |
| 1777697423 | 15° C | 68% | 1015.1 hPa | 0 mm | - | 0 W/m² | - |
| 1777697120 | 15° C | 71% | 1015 hPa | 0 mm | - | 0 W/m² | - |
| 1777696816 | 15° C | 71% | 1015 hPa | 0 mm | - | 0 W/m² | - |
| 1777696514 | 15° C | 71% | 1015 hPa | 0 mm | - | 0 W/m² | - |
| 1777696210 | 14.44° C | 75% | 1015.2 hPa | 0 mm | - | 0 W/m² | - |
| 1777695905 | 13.89° C | 79% | 1015.1 hPa | 0 mm | - | 0 W/m² | - |
| 1777695603 | 13.89° C | 81% | 1015.1 hPa | 0 mm | - | 0 W/m² | - |
| 1777695301 | 13.33° C | 89% | 1015.1 hPa | 0 mm | - | 0 W/m² | - |
| 1777694997 | 13.33° C | 89% | 1015.1 hPa | 0 mm | - | 0 W/m² | - |
| 1777694693 | 13.33° C | 89% | 1015.3 hPa | 0 mm | - | 0 W/m² | - |
| 1777694385 | 13.33° C | 89% | 1015.4 hPa | 0 mm | - | 0 W/m² | - |
| 1777694081 | 13.33° C | 90% | 1015.5 hPa | 0 mm | - | 0 W/m² | - |
| 1777693779 | 12.78° C | 89% | 1015.4 hPa | 0 mm | - | 0 W/m² | - |
| 1777693477 | 12.78° C | 91% | 1015.5 hPa | 0 mm | - | 0 W/m² | - |
| 1777693175 | 12.78° C | 91% | 1015.4 hPa | 0 mm | - | 0 W/m² | - |
| 1777692872 | 12.78° C | 91% | 1015.7 hPa | 0 mm | - | 0 W/m² | - |
| 1777692568 | 12.78° C | 91% | 1015.5 hPa | 0 mm | - | 0 W/m² | - |
| 1777692265 | 12.78° C | 91% | 1015.3 hPa | 0 mm | - | 0 W/m² | - |
* Rain latest hour (hover to see other rain measurements)
** Current wind speed in m/s (hover to see current wind gust speed)